Content
SEND FEEDBACK

Daily
Averages
Monthly
Summary
United States of America

LAMAR, MONTANA


Home > North America > United States > Montana
Elevation: 7126 feet     Latitude: 44 54N     Longitude: 110 14W

WEATHER
 
SELECT A DAY
Number of Records: 297,813;   Date Range: 1/1/95 - 10/18/14
 
SHARE

PRINT THIS DATA

[ ← Previous Day ]
WEATHER ALMANAC - JANUARY 31, 2013
[ Next Day → ]
[ °C ]   °F
Weather ElementAverageHighLow
Temperature22.7 °F26.1 °F (1:56 pm)19.9 °F (5:56 am)
Dewpoint17.7 °F19 °F (11:56 am)16 °F (5:56 am)
Humidity81.4 %85 % (5:56 am)75 % (1:56 pm)
Barometer30.21 in30.26 in (10:56 am)30.10 in (1:56 am)
Wind Speed5 mph9.2 mph (1:56 am)
Wind Gust20.7 mph (1:56 pm)
Weather ElementAverage
Wind DirectionE (91.7 °)

Weather ElementTotal
Precipitation0.04 in
Heating Degree Days42 (Base 65)
Averaged from 23 records on January 31, 2013
WEATHER CONDITIONS BREAKOUT
WIND DIRECTION BREAKOUT
WEATHER BY HOUR - JANUARY 31, 2013
[ °C ]   °F
Local TimeTemperatureDewpointHumidityBarometerVisibilityWind DirectionWind SpeedGust SpeedPrecipitationEventsConditions
1:56 AM21.9 °F17.1 °F82 %30.10 inWest (270°)9.2 mph
2:56 AM21.9 °F17.1 °F82 %30.11 inVariable5.8 mph
3:56 AM21.9 °F17.1 °F82 %30.13 inVariable4.6 mph
4:56 AM21.9 °F17.1 °F82 %30.16 inCalm
5:56 AM19.9 °F16.0 °F85 %30.18 inCalm
6:56 AM21.0 °F16.0 °F81 %30.19 inVariable4.6 mph
7:56 AM21.0 °F16.0 °F81 %30.21 inVariable5.8 mph
8:56 AM21.0 °F16.0 °F81 %30.22 inWest (270°)5.8 mph
9:56 AM21.9 °F17.1 °F82 %30.24 inVariable3.5 mph
10:56 AM23.0 °F18.0 °F81 %30.26 inWest (270°)8.1 mph
11:56 AM24.1 °F19.0 °F81 %30.25 inWest (260°)4.6 mph0.01 in
12:56 PM25.0 °F19.0 °F78 %30.23 inWSW (250°)8.1 mph19.6 mph
1:56 PM26.1 °F19.0 °F75 %30.21 inWest (270°)8.1 mph20.7 mph
2:56 PM26.1 °F19.0 °F75 %30.22 inVariable6.9 mph0.01 in
3:56 PM25.0 °F18.0 °F75 %30.23 inVariable5.8 mph
4:56 PM23.0 °F18.0 °F81 %30.23 inWest (260°)8.1 mph
5:56 PM21.9 °F17.1 °F82 %30.26 inVariable3.5 mph
6:56 PM21.9 °F17.1 °F82 %30.25 inWest (260°)5.8 mph
7:56 PM21.9 °F18.0 °F85 %30.24 inVariable4.6 mph0.01 in
8:56 PM21.9 °F18.0 °F85 %30.24 inVariable4.6 mph
9:56 PM23.0 °F19.0 °F85 %30.22 inVariable3.5 mph0.01 in
10:56 PM23.0 °F19.0 °F85 %30.20 inVariable4.6 mph
11:56 PM23.0 °F19.0 °F85 %30.20 inCalm
Hourly data recorded from KP60, located miles away from Lamar, Montana







STORIES FROM OUR PARTNERS